SL-16 DEB

Satellite information

Favourite Embed

Satellite Type and Status

DEBRISIN ORBIT

Key statistics

Satellite SL-16 DEB at a glance.

Uptime

12042

Days in orbit

Revolutions

≈ 14.0

Per day

Orbit

LEO

Low Earth Orbit

Inclination

71.2

Latest

Satellite identification and parameters

Extended collection of information and parameters for SL-16 DEB.

Object identification

Identified? True

Debris? True

Object name: SL-16 DEB

International designator: 1992-093DP

Object number (NORAD): 22422

Object ID (CCSDS): 22422

Country: COMMONWEALTH OF INDEPENDENT STATES (CIS)

Current information (Y/N): Y

RCS size: SMALL

Orbital parameters

Period: 102.821 minutes

Inclination: 71.1847 deg

SMA: 7270.245 km

Apoapsis: 959.425 km

Periapsis: 824.796 km

RAAN: 50.1901 deg

Eccentricy: 0.00925887

Argument of periapsis: 353.9129 deg

Mean anomaly: 76.6921 deg

Mean motion: 14.00487274 rev/day

Mean motion (dot): 0.00000467 rev/day2

B* drag term: 0.00033208271 1/REarth

Two-line elements (TLE)

Creation date: Dec. 12, 2025, 10:14 a.m.

Reference frame: TEME

Reference center: EARTH

Epoch: Dec. 12, 2025, 6:37 a.m. UTC

TLE line 0: 0 SL-16 DEB

TLE line 1: 1 22422U 92093DP 25346.27611999 .00000467 00000-0 33208-3 0 9995

TLE line 2: 2 22422 71.1847 50.1901 0092589 353.9129 76.6921 14.00487274678226

Live tracking on map

Real-time ground track for satellite SL-16 DEB.

In-orbit conjunctions

A list of the most updated potential collisions computed for object SL-16 DEB.

Target Orbit TCA Probability of collision Miss distance Type
METEOR 1-16 LEO 2025-07-19 14:11:41 0.001087214 133.0 (m) PAYLOAD
OPS 5798 DEB SSO 2025-06-03 17:07:48 0.0001320471 46.0 (m) DEBRIS
CZ-6A DEB SSO 2025-03-09 04:54:39 0.0001134529 153.0 (m) DEBRIS
THORAD AGENA D DEB SSO 2024-11-23 19:16:07 0.0001387553 161.0 (m) DEBRIS
CZ-4 DEB SSO 2024-11-13 08:29:12 0.0004547586 287.0 (m) DEBRIS

Associated space launch

Second generation ELING satellite

SL-16 DEB was lifted into orbit during the mission ‘Zenit-2 | Tselina-2 12’, on board a Zenit-2 space rocket.

The launch took place on Dec. 25, 1992, 5:56 a.m. from 45/1.

For more information about the launch, click the button.

Launch to space Zenit-2 | Tselina-2 12
Zenit-2 | Tselina-2 12

Agency: N/A

Status: Launch Successful

Launch date: Dec. 25, 1992, 5:56 a.m. UTC

Rocket: Zenit-2

Launch pad: 45/1

Location: Baikonur Cosmodrome, Republic of Kazakhstan

...

Latest news about this satellite

There are no fresh news available about this satellite. Check back as we update our databases every day.


Newsletter sign-up

Weekly statistics, charts and insights to help you stay on top of the space industry.